Zurück zum Katalog

STARLINK-4201

AktivKommunikationVLEO
NORAD 52856·PAYLOAD·🇺🇸 United States

Gestartet Jun 17, 2022 von Cape Canaveral Space Force Station

Loading…

Nächste Überflüge (nächste 24 Stunden)

TLE

AktuellSource: CelesTrak SupGP

Epoche: Sep 14, 2026, 20:38 UTC

1 52856C 22062AC  26257.86020833  .00031023  00000+0  94132-3 0  2577
2 52856  53.1569 244.2760 0001233  97.8675 282.1183 15.33534968    16

Verfolge STARLINK-4201 in Echtzeit mit AllMySat

Download on the App Store